Oskaloosa, IA

3:04 PM CDT on April 24, 2017 (GMT -0500)
Oskaloosa Municipal

Weather History for KOOA - October, 2011

Change the Weather History Date:

Saturday, October 8, 2011

  Actual Average (KOTM) Record (KOTM)
Temperature  
Mean Temperature 72 °F -  
Max Temperature 86 °F 66 °F 92 °F (1938)
Min Temperature 57 °F 46 °F 25 °F (2000)
Cooling Degree Days 6    
Growing Degree Days 22 (Base 50)    
Moisture  
Dew Point 48 °F    
Average Humidity 47    
Maximum Humidity 77    
Minimum Humidity 23    
Precipitation  
Precipitation 0.00 in - - ()
Sea Level Pressure  
Sea Level Pressure 30.16 in    
Wind  
Wind Speed 10 mph (SSE)    
Max Wind Speed 18 mph    
Max Gust Speed 25 mph    
Visibility 10 miles    
Events      
Averages and records for this station are not official NWS values.
T = Trace of Precipitation, MM = Missing Value Source: NWS Daily Summary

Daily Weather History Graph

Daily Weather History Graph

Search for Another Location

Airport or City:

Trip Planner

Search our weather history database for the weather conditions in past years. The results will help you decide how hot, cold, wet, or windy it might be!

Date:

Astronomy

Oct. 08, 2011 Rise Set
Actual Time 7:13 AM CDT 6:40 PM CDT
Civil Twilight 6:46 AM CDT 7:08 PM CDT
Nautical Twilight 6:14 AM CDT 7:40 PM CDT
Astronomical Twilight 5:42 AM CDT 8:12 PM CDT
Moon 4:52 PM CDT (10/8) 3:59 AM CDT (10/8)
Length of Visible Light 12h 22m
Length of Day
11h 26m
Waxing Gibbous, 90% of the Moon is Illuminated
Oct 8
Waxing Gibbous
Oct 11
Full
Oct 19
Last Quarter
Oct 26
New
Nov 2
First Quarter

Hourly Weather History & Observations

Time (CDT) Temp. Dew Point Humidity Pressure Visibility Wind Dir Wind Speed Gust Speed Precip Events Conditions
12:15 AM 68.0 °F 44.6 °F 43% 30.13 in 10.0 mi SSE 8.1 mph - N/A   Clear
12:35 AM 68.0 °F 46.4 °F 46% 30.13 in 10.0 mi SSE 11.5 mph - N/A   Clear
12:55 AM 68.0 °F 46.4 °F 46% 30.13 in 10.0 mi SSE 9.2 mph - N/A   Clear
1:15 AM 66.2 °F 46.4 °F 49% 30.13 in 10.0 mi SSE 9.2 mph - N/A   Clear
1:35 AM 66.2 °F 48.2 °F 52% 30.13 in 10.0 mi SSE 9.2 mph - N/A   Clear
1:55 AM 64.4 °F 48.2 °F 56% 30.13 in 10.0 mi SSE 8.1 mph - N/A   Clear
2:15 AM 64.4 °F 48.2 °F 56% 30.14 in 10.0 mi SSE 8.1 mph - N/A   Clear
2:35 AM 64.4 °F 50.0 °F 59% 30.14 in 10.0 mi SSE 8.1 mph - N/A   Clear
2:55 AM 64.4 °F 50.0 °F 59% 30.14 in 10.0 mi SSE 6.9 mph - N/A   Clear
3:35 AM 64.4 °F 50.0 °F 59% 30.14 in 10.0 mi SSE 8.1 mph - N/A   Clear
3:55 AM 62.6 °F 50.0 °F 63% 30.14 in 10.0 mi SSE 8.1 mph - N/A   Clear
4:15 AM 62.6 °F 50.0 °F 63% 30.14 in 10.0 mi SSE 6.9 mph - N/A   Clear
4:35 AM 62.6 °F 50.0 °F 63% 30.15 in 10.0 mi SSE 6.9 mph - N/A   Clear
4:55 AM 62.6 °F 50.0 °F 63% 30.15 in 10.0 mi SSE 6.9 mph - N/A   Clear
5:15 AM 62.6 °F 50.0 °F 63% 30.15 in 10.0 mi SSE 5.8 mph - N/A   Clear
5:35 AM 60.8 °F 50.0 °F 68% 30.16 in 10.0 mi SSE 5.8 mph - N/A   Clear
5:55 AM 60.8 °F 50.0 °F 68% 30.17 in 10.0 mi SE 5.8 mph - N/A   Clear
6:15 AM 59.0 °F 50.0 °F 72% 30.17 in 10.0 mi SE 5.8 mph - N/A   Clear
6:35 AM 59.0 °F 50.0 °F 72% 30.17 in 10.0 mi SE 6.9 mph - N/A   Clear
6:55 AM 57.2 °F 50.0 °F 77% 30.18 in 10.0 mi SE 5.8 mph - N/A   Clear
7:15 AM 59.0 °F 50.0 °F 72% 30.18 in 10.0 mi SSE 6.9 mph - N/A   Clear
7:55 AM 60.8 °F 51.8 °F 72% 30.18 in 10.0 mi SSE 9.2 mph - N/A   Clear
8:15 AM 62.6 °F 51.8 °F 68% 30.18 in 10.0 mi SSE 9.2 mph - N/A   Clear
8:35 AM 64.4 °F 51.8 °F 64% 30.19 in 10.0 mi SSE 11.5 mph 16.1 mph N/A   Clear
8:55 AM 68.0 °F 51.8 °F 56% 30.19 in 10.0 mi South 13.8 mph 19.6 mph N/A   Clear
9:15 AM 68.0 °F 51.8 °F 56% 30.20 in 10.0 mi South 15.0 mph 21.9 mph N/A   Clear
9:35 AM 71.6 °F 51.8 °F 50% 30.20 in 10.0 mi South 13.8 mph 21.9 mph N/A   Clear
9:55 AM 71.6 °F 51.8 °F 50% 30.19 in 10.0 mi South 16.1 mph 21.9 mph N/A   Clear
10:15 AM 73.4 °F 51.8 °F 47% 30.19 in 10.0 mi South 15.0 mph 20.7 mph N/A   Clear
10:35 AM 77.0 °F 51.8 °F 41% 30.20 in 10.0 mi South 17.3 mph 25.3 mph N/A   Clear
10:55 AM 77.0 °F 51.8 °F 41% 30.20 in 10.0 mi South 18.4 mph 23.0 mph N/A   Clear
11:15 AM 78.8 °F 51.8 °F 39% 30.20 in 10.0 mi South 18.4 mph 24.2 mph N/A   Clear
11:35 AM 80.6 °F 51.8 °F 37% 30.20 in 10.0 mi South 15.0 mph 21.9 mph N/A   Clear
11:55 AM 80.6 °F 51.8 °F 37% 30.19 in 10.0 mi South 16.1 mph 21.9 mph N/A   Clear
12:15 PM 82.4 °F 51.8 °F 35% 30.19 in 10.0 mi South 12.7 mph 23.0 mph N/A   Clear
12:35 PM 82.4 °F 51.8 °F 35% 30.19 in 10.0 mi South 15.0 mph 23.0 mph N/A   Clear
12:55 PM 82.4 °F 51.8 °F 35% 30.18 in 10.0 mi South 16.1 mph 21.9 mph N/A   Clear
1:35 PM 82.4 °F 50.0 °F 32% 30.17 in 10.0 mi South 9.2 mph 21.9 mph N/A   Scattered Clouds
1:55 PM 86.0 °F 48.2 °F 27% 30.16 in 10.0 mi SSW 13.8 mph 21.9 mph N/A   Scattered Clouds
2:35 PM 82.4 °F 48.2 °F 30% 30.15 in 10.0 mi South 13.8 mph 18.4 mph N/A   Scattered Clouds
2:55 PM 82.4 °F 46.4 °F 28% 30.15 in 10.0 mi SSE 10.4 mph 20.7 mph N/A   Scattered Clouds
3:15 PM 86.0 °F 46.4 °F 25% 30.15 in 10.0 mi SSE 13.8 mph 19.6 mph N/A   Scattered Clouds
3:35 PM 86.0 °F 44.6 °F 23% 30.15 in 10.0 mi SSW 13.8 mph 21.9 mph N/A   Scattered Clouds
3:55 PM 86.0 °F 44.6 °F 23% 30.14 in 10.0 mi South 11.5 mph 21.9 mph N/A   Mostly Cloudy
4:15 PM 86.0 °F 44.6 °F 23% 30.14 in 10.0 mi South 11.5 mph - N/A   Scattered Clouds
4:35 PM 84.2 °F 44.6 °F 25% 30.14 in 10.0 mi SSE 8.1 mph 18.4 mph N/A   Clear
4:55 PM 84.2 °F 42.8 °F 23% 30.13 in 10.0 mi South 10.4 mph 20.7 mph N/A   Clear
5:15 PM 82.4 °F 42.8 °F 25% 30.13 in 10.0 mi SSE 15.0 mph 19.6 mph N/A   Clear
5:35 PM 82.4 °F 42.8 °F 25% 30.12 in 10.0 mi South 10.4 mph - N/A   Clear
5:55 PM 80.6 °F 42.8 °F 26% 30.13 in 10.0 mi South 10.4 mph 17.3 mph N/A   Clear
6:15 PM 78.8 °F 44.6 °F 30% 30.13 in 10.0 mi South 5.8 mph - N/A   Clear
6:35 PM 75.2 °F 46.4 °F 36% 30.14 in 10.0 mi SSE 4.6 mph - N/A   Clear
6:55 PM 71.6 °F 46.4 °F 41% 30.14 in 10.0 mi SSE 4.6 mph - N/A   Clear
7:35 PM 68.0 °F 48.2 °F 49% 30.14 in 10.0 mi ESE 3.5 mph - N/A   Clear
7:55 PM 68.0 °F 46.4 °F 46% 30.15 in 10.0 mi SE 5.8 mph - N/A   Clear
8:15 PM 69.8 °F 46.4 °F 43% 30.15 in 10.0 mi ESE 5.8 mph - N/A   Clear
8:35 PM 68.0 °F 46.4 °F 46% 30.17 in 10.0 mi SE 5.8 mph - N/A   Clear
8:55 PM 66.2 °F 46.4 °F 49% 30.17 in 10.0 mi ESE 5.8 mph - N/A   Clear
9:15 PM 64.4 °F 44.6 °F 49% 30.18 in 7.0 mi SE 6.9 mph - N/A   Clear
9:35 PM 64.4 °F 44.6 °F 49% 30.18 in 7.0 mi ESE 5.8 mph - N/A   Clear
9:55 PM 64.4 °F 44.6 °F 49% 30.19 in 10.0 mi SE 4.6 mph - N/A   Clear
10:15 PM 62.6 °F 46.4 °F 55% 30.19 in 10.0 mi SE 4.6 mph - N/A   Clear
10:35 PM 62.6 °F 46.4 °F 55% 30.20 in 10.0 mi SE 6.9 mph - N/A   Clear
10:55 PM 62.6 °F 46.4 °F 55% 30.20 in 10.0 mi SE 4.6 mph - N/A   Clear
11:15 PM 64.4 °F 50.0 °F 59% 30.20 in 10.0 mi SE 5.8 mph - N/A   Clear
11:35 PM 62.6 °F 50.0 °F 63% 30.20 in 10.0 mi SE 5.8 mph - N/A   Clear
11:55 PM 60.8 °F 50.0 °F 68% 30.20 in 10.0 mi SE 5.8 mph - N/A   Clear